Flag for United Kingdom Weather past 2 weeks in Birmingham, England, United Kingdom

50 °F

Passing clouds.

Feels Like: 48 °F
Forecast: N/A
Wind: 5 mph from Southwest

Location: Birmingham / Airport

Current Time: Nov 26, 2015 at 6:22:52 PM

Latest Report: Nov 26, 2015 at 5:50 PM

Visibility: N/A

Pressure: 30.09 "Hg

Humidity: 94%

Dew point: 48 °F

Location of BirminghamLocation

Historic Weather in Birmingham — Graph


Birmingham temperature yesterday

Maximum temperature yesterday: 50 °F (at 12:20 PM)
Minimum temperature yesterday: 46 °F (at 12:20 AM)
Average temperature yesterday: 48 °F

Past Weeks' High & Low Weather Summary

High59 °F (Nov 14, 9:50 PM)100% (Nov 12, 3:50 AM)30.24 "Hg (Nov 12, 3:50 AM)
Low28 °F (Nov 23, 7:20 AM)52% (Nov 21, 1:20 PM)29.39 "Hg (Nov 17, 1:50 PM)
Average47 °F83%29.88 "Hg
* Reported Nov 11 5:20 PM — Nov 26 5:20 PM, Birmingham, Weather by CustomWeather, © 2015

Note: Actual official high and low records may vary slightly from our data, if they occured in-between our weather recording intervals... More about our weather records


Birmingham weather history for previous 24 hours

Time TempWeatherWind HumidityBarometerVisibility
5:20 PM
Thu, Nov 26
50 °FPassing clouds.5 mph94%30.09 "HgN/A
4:50 PM50 °FPartly cloudy.3 mph100%30.09 "HgN/A
4:20 PM50 °FMostly cloudy.5 mph94%30.09 "HgN/A
3:50 PM50 °FBroken clouds.5 mph94%30.09 "HgN/A
3:20 PM50 °FBroken clouds.3 mph94%30.09 "HgN/A
2:50 PM50 °FBroken clouds.3 mph94%30.09 "HgN/A
2:20 PM50 °FMostly cloudy.5 mph94%30.09 "HgN/A
1:50 PM50 °FBroken clouds.6 mph94%30.09 "Hg6 mi
1:20 PM50 °FCloudy.3 mph94%30.09 "Hg4 mi
12:50 PM50 °FDrizzle. More clouds than sun.3 mph94%30.12 "Hg2 mi
12:20 PM48 °FLight rain. Cloudy.2 mph100%30.12 "Hg1 mi
11:50 AM48 °FRain. Mostly cloudy.3 mph100%30.12 "Hg1 mi
11:20 AM48 °FDrizzle. Mostly cloudy.5 mph100%30.12 "Hg1 mi
10:50 AM48 °FDrizzle. Fog.6 mph94%30.12 "Hg1 mi
10:20 AM48 °FDrizzle. Fog.5 mph94%30.09 "Hg2 mi
9:50 AM46 °FFog.5 mph100%30.09 "Hg3 mi
9:20 AM46 °FFog.5 mph100%30.09 "Hg2 mi
8:50 AM46 °FFog.5 mph100%30.09 "Hg2 mi
8:20 AM46 °FFog.3 mph100%30.09 "Hg2 mi
7:50 AM46 °FDrizzle. Fog.3 mph100%30.09 "Hg2 mi
7:20 AM46 °FFog.6 mph93%30.09 "Hg2 mi
6:50 AM46 °FPartly cloudy.7 mph93%30.09 "Hg4 mi
6:20 AM46 °FPassing clouds.8 mph93%30.07 "Hg4 mi
5:50 AM46 °FMostly cloudy.7 mph93%30.07 "Hg4 mi
5:20 AM48 °FOvercast.8 mph87%30.07 "Hg4 mi
4:50 AM48 °FOvercast.10 mph87%30.07 "HgN/A
4:20 AM48 °FOvercast.10 mph87%30.04 "Hg6 mi
3:50 AM48 °FMostly cloudy.9 mph87%30.04 "Hg4 mi
3:20 AM48 °FMostly cloudy.9 mph87%30.04 "Hg4 mi
2:50 AM46 °FPartly cloudy.12 mph93%30.04 "Hg4 mi
2:20 AM48 °FPartly cloudy.9 mph87%30.04 "Hg5 mi
1:50 AM48 °FMostly cloudy.13 mph94%30.04 "Hg5 mi
1:20 AM48 °FMostly cloudy.12 mph94%30.04 "Hg4 mi
12:20 AM48 °FPassing clouds.12 mph94%30.04 "Hg2 mi
11:50 PM
Wed, Nov 25
48 °FPartly cloudy.8 mph94%30.01 "Hg3 mi
11:20 PM48 °FPassing clouds.10 mph94%30.01 "HgN/A
10:50 PM48 °FOvercast.7 mph94%30.01 "HgN/A
10:20 PM48 °FLight rain. Partly cloudy.10 mph94%30.01 "Hg6 mi
9:50 PM48 °FPartly cloudy.9 mph94%30.01 "HgN/A
9:20 PM48 °FPassing clouds.9 mph94%30.01 "HgN/A
8:50 PM48 °FLight rain. Mostly cloudy.13 mph94%30.01 "Hg4 mi
8:20 PM48 °FLight rain. Passing clouds.15 mph87%30.01 "Hg4 mi
7:50 PM48 °FPartly cloudy.13 mph87%30.01 "Hg5 mi
7:20 PM48 °FPassing clouds.13 mph87%29.98 "HgN/A
6:50 PM48 °FPassing clouds.15 mph87%29.98 "HgN/A
6:20 PM48 °FPassing clouds.15 mph87%29.95 "HgN/A
Weather by CustomWeather, © 2015

See weather overviewHow to use our weather pages